Hourly Weather Jizzax

Today, 8 July, Wednesday

Time Temperature Precipitation Wind Pressure Humidity
00:00 +27°C° 0 mm 1 mps 721 mmHg 29%
01:00 +27°C° 0 mm 1 mps 721 mmHg 29%
02:00 +26°C° 0 mm 1 mps 721 mmHg 29%
03:00 +26°C° 0 mm 1 mps 721 mmHg 29%
04:00 +26°C° 0 mm 1 mps 721 mmHg 28%
05:00 +25°C° 0 mm 1 mps 721 mmHg 29%
06:00 +28°C° 0 mm 1 mps 722 mmHg 25%
07:00 +30°C° 0 mm 1 mps 722 mmHg 22%
08:00 +32°C° 0 mm 1 mps 722 mmHg 18%
09:00 +35°C° 0 mm 2 mps 722 mmHg 17%
10:00 +36°C° 0 mm 2 mps 722 mmHg 15%
11:00 +38°C° 0 mm 3 mps 723 mmHg 13%
12:00 +39°C° 0 mm 3 mps 722 mmHg 12%
13:00 +40°C° 0 mm 3 mps 722 mmHg 12%
14:00 +42°C° 0 mm 3 mps 722 mmHg 11%
15:00 +42°C° 0 mm 4 mps 722 mmHg 13%
16:00 +41°C° 0 mm 5 mps 722 mmHg 14%
17:00 +41°C° 0 mm 5 mps 722 mmHg 15%
18:00 +37°C° 0 mm 4 mps 722 mmHg 18%
19:00 +35°C° 0 mm 3 mps 721 mmHg 22%
20:00 +32°C° 0 mm 2 mps 721 mmHg 25%
21:00 +31°C° 0 mm 2 mps 721 mmHg 27%
22:00 +30°C° 0 mm 2 mps 721 mmHg 28%
23:00 +29°C° 0 mm 2 mps 721 mmHg 29%

Tomorrow, 9 July, Thursday

Time Temperature Precipitation Wind Pressure Humidity
00:00 +29°C° 0 mm 2 mps 721 mmHg 29%
01:00 +29°C° 0 mm 1 mps 721 mmHg 29%
02:00 +28°C° 0 mm 1 mps 721 mmHg 29%
03:00 +28°C° 0 mm 1 mps 721 mmHg 29%
04:00 +27°C° 0 mm 1 mps 721 mmHg 29%
05:00 +27°C° 0 mm 1 mps 721 mmHg 30%
06:00 +29°C° 0 mm 1 mps 721 mmHg 26%
07:00 +32°C° 0 mm 1 mps 721 mmHg 23%
08:00 +34°C° 0 mm 1 mps 721 mmHg 19%
09:00 +37°C° 0 mm 2 mps 721 mmHg 17%
10:00 +39°C° 0 mm 2 mps 721 mmHg 16%
11:00 +40°C° 0 mm 3 mps 721 mmHg 14%
12:00 +42°C° 0 mm 3 mps 721 mmHg 13%
13:00 +43°C° 0 mm 3 mps 720 mmHg 12%
14:00 +42°C° 0 mm 2 mps 720 mmHg 11%
15:00 +43°C° 0 mm 3 mps 720 mmHg 11%
16:00 +43°C° 0 mm 3 mps 720 mmHg 11%
17:00 +43°C° 0 mm 3 mps 720 mmHg 11%
18:00 +40°C° 0 mm 3 mps 720 mmHg 14%
19:00 +38°C° 0 mm 3 mps 720 mmHg 17%
20:00 +35°C° 0 mm 3 mps 719 mmHg 20%
21:00 +34°C° 0 mm 3 mps 719 mmHg 22%
22:00 +32°C° 0 mm 2 mps 719 mmHg 24%
23:00 +30°C° 0 mm 1 mps 719 mmHg 26%

Day after tomorrow, 10 July, Friday

Time Temperature Precipitation Wind Pressure Humidity
00:00 +29°C° 0 mm 1 mps 719 mmHg 27%
01:00 +29°C° 0 mm 2 mps 719 mmHg 29%
02:00 +28°C° 0 mm 2 mps 719 mmHg 30%
03:00 +27°C° 0 mm 2 mps 719 mmHg 31%
04:00 +26°C° 0 mm 1 mps 719 mmHg 33%
05:00 +25°C° 0 mm 1 mps 719 mmHg 34%
06:00 +28°C° 0 mm 1 mps 719 mmHg 31%
07:00 +30°C° 0 mm 1 mps 720 mmHg 28%
08:00 +32°C° 0 mm 1 mps 720 mmHg 24%
09:00 +35°C° 0 mm 2 mps 720 mmHg 22%
10:00 +37°C° 0 mm 2 mps 720 mmHg 19%
11:00 +39°C° 0 mm 3 mps 720 mmHg 17%
12:00 +40°C° 0 mm 3 mps 720 mmHg 16%
13:00 +42°C° 0 mm 3 mps 719 mmHg 14%
14:00 +43°C° 0 mm 4 mps 719 mmHg 13%
15:00 +42°C° 0 mm 4 mps 719 mmHg 13%
16:00 +42°C° 0 mm 4 mps 719 mmHg 14%
17:00 +41°C° 0 mm 4 mps 719 mmHg 15%
18:00 +38°C° 0 mm 3 mps 719 mmHg 19%
19:00 +35°C° 0 mm 3 mps 719 mmHg 24%
20:00 +31°C° 0 mm 3 mps 719 mmHg 28%
21:00 +30°C° 0 mm 3 mps 720 mmHg 32%
22:00 +29°C° 0 mm 3 mps 720 mmHg 36%
23:00 +28°C° 0 mm 2 mps 720 mmHg 40%

11 July, Saturday

Time Temperature Precipitation Wind Pressure Humidity
00:00 +27°C° 0.1 mm 2 mps 720 mmHg 42%
01:00 +27°C° 0.1 mm 2 mps 720 mmHg 44%
02:00 +26°C° 0.1 mm 2 mps 720 mmHg 45%
03:00 +26°C° 0.3 mm 2 mps 720 mmHg 46%
04:00 +26°C° 0.3 mm 3 mps 720 mmHg 46%
05:00 +26°C° 0.3 mm 3 mps 720 mmHg 46%
06:00 +27°C° 0.1 mm 3 mps 720 mmHg 44%
07:00 +28°C° 0.1 mm 3 mps 721 mmHg 41%
08:00 +30°C° 0.1 mm 3 mps 721 mmHg 39%
09:00 +31°C° 0 mm 3 mps 721 mmHg 36%
10:00 +33°C° 0 mm 3 mps 721 mmHg 32%
11:00 +35°C° 0 mm 3 mps 721 mmHg 29%
12:00 +36°C° 0 mm 3 mps 721 mmHg 26%
13:00 +37°C° 0 mm 3 mps 721 mmHg 23%
14:00 +38°C° 0 mm 4 mps 720 mmHg 20%
15:00 +34°C° 1.3 mm 5 mps 720 mmHg 32%
16:00 +30°C° 1.3 mm 7 mps 720 mmHg 45%
17:00 +26°C° 1.3 mm 8 mps 719 mmHg 57%
18:00 +27°C° 0.5 mm 6 mps 720 mmHg 53%
19:00 +28°C° 0.5 mm 5 mps 720 mmHg 49%
20:00 +28°C° 0.5 mm 4 mps 720 mmHg 45%
21:00 +28°C° 0.1 mm 3 mps 720 mmHg 45%
22:00 +28°C° 0.1 mm 3 mps 720 mmHg 45%
23:00 +27°C° 0.1 mm 3 mps 720 mmHg 45%

12 July, Sunday

Time Temperature Precipitation Wind Pressure Humidity
00:00 +27°C° 0 mm 2 mps 720 mmHg 45%
01:00 +27°C° 0 mm 1 mps 719 mmHg 45%
02:00 +27°C° 0 mm 1 mps 719 mmHg 44%
03:00 +27°C° 0 mm 1 mps 719 mmHg 44%
04:00 +27°C° 0 mm 1 mps 719 mmHg 43%
05:00 +27°C° 0 mm 2 mps 719 mmHg 42%
06:00 +28°C° 0 mm 2 mps 719 mmHg 39%
07:00 +29°C° 0 mm 3 mps 719 mmHg 36%
08:00 +31°C° 0 mm 3 mps 719 mmHg 33%
09:00 +33°C° 0 mm 3 mps 719 mmHg 30%
10:00 +35°C° 0 mm 3 mps 719 mmHg 27%
11:00 +36°C° 0 mm 3 mps 719 mmHg 24%
12:00 +37°C° 0 mm 3 mps 719 mmHg 22%
13:00 +38°C° 0 mm 3 mps 719 mmHg 20%
14:00 +39°C° 0 mm 3 mps 719 mmHg 18%
15:00 +39°C° 0 mm 3 mps 719 mmHg 18%
16:00 +39°C° 0 mm 3 mps 719 mmHg 19%
17:00 +39°C° 0 mm 3 mps 719 mmHg 19%
18:00 +37°C° 0.3 mm 4 mps 719 mmHg 24%
19:00 +34°C° 0.3 mm 4 mps 719 mmHg 29%
20:00 +32°C° 0.3 mm 4 mps 719 mmHg 34%
21:00 +32°C° 0 mm 4 mps 719 mmHg 34%
22:00 +30°C° 0 mm 3 mps 719 mmHg 33%
23:00 +30°C° 0 mm 3 mps 719 mmHg 32%

13 July, Monday

Time Temperature Precipitation Wind Pressure Humidity
00:00 +30°C° 0 mm 3 mps 719 mmHg 32%
01:00 +29°C° 0 mm 2 mps 719 mmHg 32%
02:00 +29°C° 0 mm 2 mps 719 mmHg 32%
03:00 +28°C° 0 mm 2 mps 719 mmHg 33%
04:00 +28°C° 0 mm 2 mps 718 mmHg 33%
05:00 +28°C° 0 mm 1 mps 718 mmHg 34%
06:00 +29°C° 0 mm 2 mps 719 mmHg 31%
07:00 +31°C° 0 mm 2 mps 719 mmHg 29%
08:00 +34°C° 0 mm 2 mps 719 mmHg 26%
09:00 +35°C° 0 mm 2 mps 719 mmHg 24%
10:00 +37°C° 0 mm 2 mps 719 mmHg 21%
11:00 +39°C° 0 mm 1 mps 719 mmHg 19%
12:00 +39°C° 0 mm 1 mps 719 mmHg 18%
13:00 +40°C° 0 mm 2 mps 719 mmHg 16%
14:00 +41°C° 0 mm 2 mps 719 mmHg 15%
15:00 +40°C° 0.2 mm 3 mps 719 mmHg 18%
16:00 +38°C° 0.2 mm 4 mps 719 mmHg 21%
17:00 +37°C° 0.2 mm 5 mps 718 mmHg 24%
18:00 +35°C° 0.1 mm 4 mps 718 mmHg 28%
19:00 +34°C° 0.1 mm 3 mps 718 mmHg 33%
20:00 +31°C° 0.1 mm 3 mps 718 mmHg 37%
21:00 +30°C° 0 mm 2 mps 718 mmHg 38%
22:00 +30°C° 0 mm 1 mps 719 mmHg 39%
23:00 +29°C° 0 mm 1 mps 719 mmHg 39%
Show more